TimePST,TemperatureF,Dew PointF,Humidity,Sea Level PressureIn,VisibilityMPH,Wind Direction,Wind SpeedMPH,Gust SpeedMPH,PrecipitationIn,Events,Conditions,WindDirDegrees,DateUTC
12:56 AM,55.0,33.1,43,30.14,10.0,West,6.9,-,N/A,,Clear,260,2012-11-23 08:56:00
1:56 AM,54.0,34.0,47,30.14,10.0,SW,6.9,-,N/A,,Clear,230,2012-11-23 09:56:00
2:56 AM,53.1,34.0,48,30.14,10.0,West,5.8,-,N/A,,Clear,260,2012-11-23 10:56:00
3:56 AM,53.1,34.0,48,30.14,10.0,West,6.9,-,N/A,,Clear,270,2012-11-23 11:56:00
4:56 AM,52.0,35.1,53,30.15,10.0,WSW,4.6,-,N/A,,Clear,250,2012-11-23 12:56:00
5:56 AM,50.0,34.0,54,30.16,10.0,West,5.8,-,N/A,,Clear,270,2012-11-23 13:56:00
6:56 AM,53.1,35.1,50,30.19,10.0,SW,6.9,-,N/A,,Clear,230,2012-11-23 14:56:00
7:56 AM,60.1,36.0,41,30.21,10.0,WSW,3.5,-,N/A,,Clear,240,2012-11-23 15:56:00
8:56 AM,68.0,37.0,32,30.23,10.0,Calm,Calm,-,N/A,,Clear,0,2012-11-23 16:56:00
9:56 AM,73.9,37.9,27,30.23,10.0,Calm,Calm,-,N/A,,Clear,0,2012-11-23 17:56:00
10:56 AM,79.0,35.1,20,30.21,10.0,Calm,Calm,-,N/A,,Clear,0,2012-11-23 18:56:00
11:56 AM,80.1,35.1,20,30.17,10.0,Calm,Calm,-,N/A,,Clear,0,2012-11-23 19:56:00
12:56 PM,82.0,30.0,15,30.15,10.0,Calm,Calm,-,N/A,,Clear,0,2012-11-23 20:56:00
1:56 PM,84.0,30.0,14,30.13,10.0,Variable,3.5,-,N/A,,Clear,0,2012-11-23 21:56:00
2:56 PM,84.0,28.9,14,30.12,10.0,North,4.6,-,N/A,,Clear,10,2012-11-23 22:56:00
3:56 PM,82.0,30.0,15,30.11,10.0,NW,4.6,-,N/A,,Clear,310,2012-11-23 23:56:00
4:56 PM,75.0,33.1,22,30.11,10.0,Calm,Calm,-,N/A,,Clear,0,2012-11-24 00:56:00
5:56 PM,70.0,35.1,28,30.11,10.0,Calm,Calm,-,N/A,,Clear,0,2012-11-24 01:56:00
6:56 PM,64.0,36.0,35,30.12,10.0,West,6.9,-,N/A,,Clear,260,2012-11-24 02:56:00
7:56 PM,61.0,32.0,34,30.13,10.0,West,8.1,-,N/A,,Clear,270,2012-11-24 03:56:00
8:56 PM,61.0,28.0,29,30.13,10.0,West,8.1,-,N/A,,Clear,260,2012-11-24 04:56:00
9:56 PM,60.1,28.0,30,30.12,10.0,West,8.1,-,N/A,,Clear,260,2012-11-24 05:56:00
10:56 PM,57.9,28.9,33,30.12,10.0,WNW,3.5,-,N/A,,Clear,290,2012-11-24 06:56:00
11:56 PM,55.0,30.0,38,30.12,10.0,West,3.5,-,N/A,,Clear,280,2012-11-24 07:56:00